User: anonymous   Login
Location: Baix
(44.7118°N, 4.7648°E)
Time: 00:24:16
(UTC+00:00)
Language:

Cosmos 1825 Rocket - Orbit

View from above orbital plane
View from above orbital plane
View from above satellite
View from above satellite

Ground track
Ground track

The orbit data is extracted from the following two-line orbital elements,

1 17567U 87024B   20293.10576603  .00000073  00000-0  59700-5 0  9997
2 17567  82.5269 137.1540 0017696 282.6005  77.3231 14.83773702817352
Epoch (UTC): 19 October 2020 02:32:18
Eccentricity: 0.0017696
inclination: 82.5269°
perigee height: 605 km
apogee height: 630 km
right ascension of ascending node: 137.1540°
argument of perigee: 282.6005°
revolutions per day: 14.83773702
mean anomaly at epoch: 77.3231°
orbit number at epoch: 81735

The dashed part of the orbit path shows where the satellite is in the earth's shadow,  

DLR